User: anonymous   Login
Location: Gollag?dem
(16.8053°N, 80.8024°E)
Time: 17:25:08
(UTC+00:00)
Language:

CZ-2C R/B - Orbit

View from above orbital plane
View from above orbital plane
View from above satellite
View from above satellite

Ground track
Ground track

The orbit data is extracted from the following two-line orbital elements,

1 36089U 09061B   20298.21443569  .00000021  00000-0  16858-4 0  9992
2 36089  98.1708 267.8066 0080799 236.7330 131.8452 14.49836529579201
Epoch (UTC): 24 October 2020 05:08:47
Eccentricity: 0.0080799
inclination: 98.1708°
perigee height: 669 km
apogee height: 783 km
right ascension of ascending node: 267.8066°
argument of perigee: 236.7330°
revolutions per day: 14.49836529
mean anomaly at epoch: 131.8452°
orbit number at epoch: 57920

The dashed part of the orbit path shows where the satellite is in the earth's shadow,  

DLR